VKG633 LCLK-ESSA

Flight info

Callsign VKG633
Flight time N/A
Altitude 32000
Route PHA M31 GENOS DCT PEDER DCT TOMBI UA16 AYT UQ26 TUDBU DCT ARNOV DCT AMTOV DCT VAMON DCT IBINU DCT BUKAN DCT BADOR DCT LENOV/N0453F340 N133 GOSAK DCT NEGUV N133 VIDEV DCT ADOXO N133 PENEX DCT IRLUN N133 PENOR DCT TESPO DCT ARMOD/N0455F350 Z228 NILUG
Aircraft A321/M-SDE3FGHIRWY/LB1

Departure

Time 2026-05-04 15:48
Airport Larnaca International Airport (LCLK)

Arrival

Time N/A
Airport Stockholm-Arlanda Airport (ESSA)
Time Latitude Longitude Altitude Speed Heading
2026-05-04 15:19 34.86876 33.60954 20 ft 0 kts 45°
2026-05-04 15:36 34.86876 33.60953 20 ft 2 kts 45°
2026-05-04 15:37 34.86859 33.60932 20 ft 4 kts 62°
2026-05-04 15:37 34.86850 33.60903 20 ft 4 kts 51°
2026-05-04 15:37 34.86836 33.60884 24 ft 4 kts 46°
2026-05-04 15:37 34.86819 33.60869 20 ft 4 kts 341°
2026-05-04 15:38 34.86804 33.60883 25 ft 4 kts 315°
2026-05-04 15:38 34.86796 33.60892 22 ft 0 kts 315°
2026-05-04 15:42 34.86797 33.60891 20 ft 1 kts 316°
2026-05-04 15:42 34.86835 33.60845 20 ft 14 kts 315°
2026-05-04 15:43 34.86860 33.60726 23 ft 19 kts 232°
2026-05-04 15:43 34.86782 33.60797 20 ft 19 kts 127°
2026-05-04 15:43 34.86680 33.60918 20 ft 21 kts 136°
2026-05-04 15:43 34.86660 33.61033 22 ft 14 kts 77°
2026-05-04 15:44 34.86648 33.61132 21 ft 11 kts 62°
2026-05-04 15:44 34.86698 33.61207 20 ft 15 kts 46°
2026-05-04 15:44 34.86801 33.61324 17 ft 25 kts 42°
2026-05-04 15:44 34.86941 33.61504 18 ft 33 kts 46°
2026-05-04 15:45 34.87099 33.61695 21 ft 28 kts 43°
2026-05-04 15:45 34.87236 33.61858 21 ft 27 kts 44°
2026-05-04 15:45 34.87364 33.62015 19 ft 26 kts 45°
2026-05-04 15:45 34.87490 33.62171 18 ft 25 kts 45°
2026-05-04 15:46 34.87614 33.62325 16 ft 25 kts 45°
2026-05-04 15:46 34.87731 33.62466 19 ft 23 kts 44°
2026-05-04 15:46 34.87839 33.62599 20 ft 21 kts 45°
2026-05-04 15:46 34.87932 33.62711 21 ft 15 kts 44°
2026-05-04 15:47 34.87956 33.62797 21 ft 10 kts 115°
2026-05-04 15:47 34.87913 33.62843 23 ft 7 kts 142°
2026-05-04 15:47 34.87862 33.62904 21 ft 16 kts 133°
2026-05-04 15:47 34.87790 33.62901 21 ft 0 kts 226°
2026-05-04 15:48 34.87759 33.62862 22 ft 31 kts 226°
2026-05-04 15:48 34.87387 33.62407 17 ft 115 kts 225°
2026-05-04 15:48 34.85815 33.60503 801 ft 176 kts 226°
2026-05-04 15:49 34.84936 33.59480 1603 ft 168 kts 227°
2026-05-04 15:49 34.84116 33.58452 2008 ft 176 kts 231°
2026-05-04 15:49 34.83260 33.57288 2141 ft 192 kts 232°
2026-05-04 15:49 34.82335 33.56034 2302 ft 206 kts 231°
2026-05-04 15:50 34.81321 33.54679 2401 ft 229 kts 229°
2026-05-04 15:50 34.80543 33.53653 2615 ft 244 kts 230°
2026-05-04 15:51 34.79429 33.52206 3250 ft 248 kts 229°
2026-05-04 15:51 34.78243 33.50676 4042 ft 249 kts 230°
2026-05-04 15:51 34.77051 33.49141 4839 ft 250 kts 230°
2026-05-04 15:51 34.75850 33.47597 5580 ft 252 kts 230°
2026-05-04 15:52 34.74634 33.46034 6290 ft 255 kts 231°
2026-05-04 15:52 34.73412 33.44469 7019 ft 256 kts 230°
2026-05-04 15:52 34.72185 33.42903 7687 ft 259 kts 230°
2026-05-04 15:52 34.70929 33.41303 8366 ft 262 kts 230°
2026-05-04 15:53 34.69677 33.39680 9044 ft 264 kts 234°
2026-05-04 15:53 34.68695 33.37805 9705 ft 263 kts 248°
2026-05-04 15:53 34.68145 33.35689 10320 ft 263 kts 262°
2026-05-04 15:53 34.68043 33.33459 10858 ft 269 kts 272°
2026-05-04 15:54 34.68139 33.31092 10986 ft 290 kts 273°
2026-05-04 15:54 34.68247 33.28564 11111 ft 310 kts 273°
2026-05-04 15:54 34.68360 33.25921 11402 ft 322 kts 273°
2026-05-04 15:54 34.68475 33.23176 11939 ft 327 kts 273°
2026-05-04 15:55 34.68587 33.20399 12547 ft 330 kts 273°
2026-05-04 15:55 34.68698 33.17599 13143 ft 334 kts 273°
2026-05-04 15:55 34.68811 33.14768 13736 ft 337 kts 273°
2026-05-04 15:55 34.68926 33.11913 14274 ft 339 kts 273°
2026-05-04 15:56 34.69042 33.09033 14802 ft 342 kts 274°
2026-05-04 15:56 34.69158 33.06130 15320 ft 345 kts 273°
2026-05-04 15:56 34.69273 33.03200 15842 ft 348 kts 273°
2026-05-04 15:56 34.69385 33.00286 16340 ft 351 kts 273°
2026-05-04 15:57 34.69496 32.97317 16842 ft 354 kts 273°
2026-05-04 15:57 34.69606 32.94316 17329 ft 357 kts 273°
2026-05-04 15:57 34.69717 32.91286 17830 ft 360 kts 273°
2026-05-04 15:57 34.69831 32.88237 18279 ft 363 kts 273°
2026-05-04 15:58 34.69948 32.85159 18700 ft 366 kts 274°
2026-05-04 15:58 34.70063 32.82062 19129 ft 367 kts 273°
2026-05-04 15:58 34.70176 32.78944 19561 ft 370 kts 273°
2026-05-04 15:58 34.70287 32.75803 19958 ft 372 kts 273°
2026-05-04 15:59 34.70398 32.72691 20372 ft 375 kts 273°
2026-05-04 15:59 34.70512 32.69516 20781 ft 377 kts 273°
2026-05-04 15:59 34.70628 32.66318 21199 ft 379 kts 273°
2026-05-04 15:59 34.70745 32.63096 21611 ft 381 kts 273°
2026-05-04 16:00 34.70861 32.59866 21977 ft 384 kts 273°
2026-05-04 16:00 34.70975 32.56605 22350 ft 388 kts 273°
2026-05-04 16:00 34.71088 32.53328 22732 ft 390 kts 272°
2026-05-04 16:00 34.71154 32.50009 23019 ft 396 kts 269°
2026-05-04 16:01 34.70997 32.46674 23162 ft 404 kts 267°
2026-05-04 16:01 34.70816 32.43234 23305 ft 411 kts 267°
2026-05-04 16:01 34.70626 32.39730 23442 ft 419 kts 266°
2026-05-04 16:01 34.70432 32.36168 23561 ft 425 kts 267°
2026-05-04 16:02 34.70236 32.32570 23794 ft 429 kts 267°
2026-05-04 16:02 34.70039 32.28944 24055 ft 431 kts 267°
2026-05-04 16:02 34.69647 32.21645 24653 ft 433 kts 267°
2026-05-04 16:03 34.69450 32.18031 24944 ft 435 kts 266°
2026-05-04 16:03 34.69252 32.14355 25236 ft 436 kts 268°
2026-05-04 16:03 34.69463 32.10681 25514 ft 437 kts 282°
2026-05-04 16:03 34.70491 32.07205 25776 ft 440 kts 297°
2026-05-04 16:04 34.72296 32.04192 26058 ft 445 kts 313°
2026-05-04 16:04 34.77196 31.99544 26756 ft 446 kts 320°
2026-05-04 16:04 34.79690 31.97297 27113 ft 445 kts 320°
2026-05-04 16:05 34.82176 31.95056 27475 ft 444 kts 320°
2026-05-04 16:05 34.84663 31.92807 27845 ft 444 kts 321°
2026-05-04 16:05 34.89584 31.88346 28491 ft 443 kts 321°
2026-05-04 16:06 34.92058 31.86094 28830 ft 443 kts 321°